map of CDR home
Great Circle Mapper logo
CDR - Airport
Location
City:  Chadron, Nebraska, United States
Name:Chadron Municipal Airport
ICAO / IATA:KCDR / CDR
FAA:CDR

Details
Type:Airport (Part 139 Class III)
Use:Public/Civil
Latitude:4250'15"N (42.837558)
Longitude:10305'43"W (-103.095401)
Datum:WGS 1984
Elevation:3297 ft (1005 m)
Runways:2
Longest:5998 × 100 ft (1828 × 30.5 m), paved

Time
Time Zone:UTC-7 (DST-6)
Local Time:

Weather
METAR:KCDR 221953Z AUTO 18021G26KT 10SM BKN100 23/12 A3000 RMK AO2 PK WND 17026/1945 SLP139 T02330117
TAF:KCDR 221732Z 2218/2318 18016G22KT P6SM -SHRA OVC100
FM222200 19014G24KT P6SM VCTS SCT050CB OVC090
FM230400 18022G34KT P6SM VCSH SCT030 BKN050
FM230900 22007KT P6SM SCT050 BKN150

Related Locations
Nearby:
Farthest:RRG: 10658 mi / 17152 km
Plaine Corail, Rodrigues Island, MU

Find:

   beyond  
but within

Other Information
Maps:
NOTAMs:
Links:
Sources:

  
flag of United States
flag of Nebraska
  

Sectional Chart

Flight Planning
at skyvector.com

Satellite Image

Google Maps Satellite View

 

Copyright © 2004-2014 Karl L. Swartz. All rights reserved.
The Great Circle Mapper name and logo are trademarks of the Great Circle Mapper.
All other trademarks mentioned herein belong to their respective owners.
Please see credits for attibutions and further copyright information.

  Follow gcmap on Facebook Follow gcmap on Twitter

hCard Microformat

Geo Microformat